Lexington Weather

Lexington, Massachusetts, USA

73°F
8/7/2020 11:21am 
  • Lexington Conditions: Clear
  • Temperature: 72.7°F / 22.6°CWarmer 2.7°F than last hour.
  • Dew Point: 63.9°FIncreased 1.5°Fsince last hour.
  • Relative Humidity: 74%Decreased 3.0% since last hour.
  • Wind: Calm, 10-min avg: Calm, gust: 2 mph
  • Barometer: 30.14 in Steady
  • Visibility: 10 miles
  • Rain Today: 0.00 in
  •   

Regional Weather Roundup
for Boston / Norton, MA

        
000
ASUS41 KBOX 021205
RWRBOX

REGIONAL WEATHER ROUNDUP
NATIONAL WEATHER SERVICE BOSTON/NORTON MA
800 AM EDT SUN AUG 02 2020

NOTE:  "FAIR" INDICATES FEW OR NO CLOUDS BELOW 12,000 FEET WITH NO 
SIGNIFICANT WEATHER AND/OR OBSTRUCTIONS TO VISIBILITY.

MAZALL-021300-
EASTERN MASSACHUSETTS
  
CITY           SKY/WX    TMP DP  RH WIND       PRES   REMARKS
BOSTON         PTSUNNY   74  69  85 S9        29.99F                  
6HR MIN TEMP:  70; 6HR MAX TEMP:  74;                                

BEVERLY        PTSUNNY   76  70  82 S6        29.99S                  
LAWRENCE       PTSUNNY   74  69  85 SW6       30.01S                  
BEDFORD        PTSUNNY   74  69  85 S6        29.98S                  
BLUE HILL      NOT AVBL                                               
NORWOOD        CLOUDY    76  69  79 S8        30.00S                  
MARSHFIELD     MOSUNNY   79  72  78 S7        30.00S                  
PLYMOUTH       PTSUNNY   75  71  87 S6        30.01S                  
TAUNTON        MOSUNNY   79  71  76 S3        30.00S                  
NEW BEDFORD    MOSUNNY   76  73  91 S6        30.00S                  
$$

MAZALL-021300-
CAPE COD AND THE ISLANDS
  
CITY           SKY/WX    TMP DP  RH WIND       PRES   REMARKS
FALMOUTH       MOSUNNY   77  70  78 S8        30.02S                  
HYANNIS        SUNNY     78  70  76 VRB6      30.01S                  
CHATHAM        SUNNY     78  71  79 VRB5      30.04R                  
PROVINCETOWN   SUNNY     77  72  84 SW9       30.02S                  
NANTUCKET      SUNNY     73  67  81 S8        30.03S                  
MARTHAS VNYRD  MOSUNNY   76  70  82 S8        30.02S                  
$$
 
MAZALL-021300-
CENTRAL AND WESTERN MASSACHUSETTS
  
CITY           SKY/WX    TMP DP  RH WIND       PRES   REMARKS
WORCESTER      CLOUDY    71  67  87 S7        30.03R                  
6HR MIN TEMP:  68; 6HR MAX TEMP:  72;                                

FITCHBURG      CLOUDY    73  65  75 S6        30.00S                  
ORANGE         CLOUDY    70  66  87 CALM      30.01R                  
SPRINGFIELD    CLOUDY    76  69  78 S5        29.97S                  
WESTFIELD      CLOUDY    75  69  81 S6        29.98S                  
NORTH ADAMS    CLOUDY    74  63  68 E5        29.97S                  
PITTSFIELD     CLOUDY    73  66  78 CALM      29.98S                  
$$
 
RIZALL-021300-
RHODE ISLAND
  
CITY           SKY/WX    TMP DP  RH WIND       PRES   REMARKS
PROVIDENCE     PTSUNNY   74  71  91 S5        30.01S                  
6HR MIN TEMP:  69; 6HR MAX TEMP:  74;                                

NEWPORT        CLOUDY    77  73  87 S8        30.01S                  
BLOCK ISLAND   MOSUNNY   75  71  87 S9        30.02R                  
SMITHFIELD     MOSUNNY   73  71  93 VRB3      30.02S                  
WESTERLY       MOSUNNY   76  70  82 SE7       30.01R                  
$$
 
CTZALL-021300-
CONNECTICUT
  
CITY           SKY/WX    TMP DP  RH WIND       PRES   REMARKS
BRADLEY INTL   PTSUNNY   76  69  79 S7        29.97S                  
6HR MIN TEMP:  73; 6HR MAX TEMP:  76;                                

HARTFORD       PTSUNNY   76  70  82 S6        29.97S                  
BRIDGEPORT     PTSUNNY   76  71  85 SE8       29.97S                  
DANBURY        CLOUDY    75  72  90 SE5       29.99S                  
GROTON         MOSUNNY   74  71  91 SE7       29.99S                  
NEW HAVEN      PTSUNNY   79  73  82 S12       29.98R                  
CHESTER        NOT AVBL                                               
MERIDEN        PTSUNNY   76  69  79 S3        29.98S                  
WILLIMANTIC    CLOUDY    74  69  85 S3        30.01R                  
OXFORD         PTSUNNY   74  71  91 SE8       30.00F                  
$$

MEZ002-015-021-024-NHZ003-005-008-011-012-014-VTZ005-008-021300-
NORTHERN NEW ENGLAND
  
CITY           SKY/WX    TMP DP  RH WIND       PRES   REMARKS
PORTLAND ME    MOSUNNY   74  67  78 S3        29.99S                  
6HR MIN TEMP:  66; 6HR MAX TEMP:  74;                                

BANGOR ME      MOSUNNY   72  64  76 S3        30.00R                  
CONCORD NH     CLOUDY    71  65  81 CALM      29.99S                  
MANCHESTER NH  PTSUNNY   73  66  78 SW5       29.97S                  
NASHUA NH      CLOUDY    72  70  93 CALM      29.99S                  
PORTSMOUTH NH  PTSUNNY   73  66  81 CALM      29.97S                  
JAFFREY NH     CLOUDY    71  64  78 CALM      30.02S                  
KEENE NH       CLOUDY    68  65  90 CALM      30.00R                  
BURLINGTON VT  PTSUNNY   74  61  63 S3        29.92R                  
MT. WASHINGTON NOT AVBL                                               
$$

NYZ052-076-021300-
EASTERN NEW YORK
  
CITY           SKY/WX    TMP DP  RH WIND       PRES   REMARKS
ALBANY         PTSUNNY   73  66  78 SE8       29.93S                  
6HR MIN TEMP:  71; 6HR MAX TEMP:  74; 6HR PCP: TRACE;                

NEW YORK CITY  PTSUNNY   77  71  82 S12       29.94S                  
6HR MIN TEMP:  77; 6HR MAX TEMP:  80;                                

$$
 
ANZALL-021300-
MARINE OBSERVATIONS
  
STATION/POSITION TIME  TEMP    WIND        PRES    VSBY  WAVE
                       AIR SEA DIR/SP/G                  HT/PER
                 (UTC) (F)     (DEG/KT/KT) (MB)    (MI)  (FT/S)
BOSTON BUOY      1150   71 72  150/  8/  8 1014.7R         1/ 9
BUZZARDS BAY     1100          170/  8/  8 1017.2S
NANTUCKET SOUND  1150      76  170/  8/ 10   N/A           1
MASS BAY-STELLWA 1104   72     230/  8/ 10 1013.5S  1 7/8  2/ 8
ISLE OF SHOALS   1100   70     210/  7/  7 1014.8S
S OF BLOCK IS    1126      72                N/A           3/11
$$

......................KEY.........................
  SKY/WX - SKY CONDITION/PRESENT WEATHER
  TMP    - TEMPERATURE IN FAHRENHEIT
  DWPT   - DEWPOINT IN FAHRENHEIT
  RH     - RELATIVE HUMIDITY IN PERCENT
  WIND   - DIRECTION AND SPEED IN MPH
  PRES   - MEAN SEA LEVEL PRESSURE IN INCHES OF HG
  WCI    - WIND CHILL INDEX
  VSB    - VISIBILITY IN MILES
  HX     - HEAT INDEX
  TC     - TEMPERATURE IN CELSIUS
  VRB    - VARIABLE WIND DIRECTION
  N/A    - NOT AVAILABLE
  
      

Other recent Regional Weather Roundups

Fri Aug 7, 11:04am

Fri Aug 7, 10:04am

Fri Aug 7, 9:04am

Fri Aug 7, 8:04am

Fri Aug 7, 7:04am

Fri Aug 7, 6:04am

Fri Aug 7, 5:04am

Fri Aug 7, 4:04am

Fri Aug 7, 3:04am

Fri Aug 7, 2:04am

Fri Aug 7, 1:05am

Fri Aug 7, 12:04am

Thu Aug 6, 11:04pm

Thu Aug 6, 10:04pm

Thu Aug 6, 9:04pm

Thu Aug 6, 8:04pm

Thu Aug 6, 7:04pm

Thu Aug 6, 6:04pm

Thu Aug 6, 5:04pm

Thu Aug 6, 4:05pm

Thu Aug 6, 3:04pm

Thu Aug 6, 2:05pm

Thu Aug 6, 1:04pm

Thu Aug 6, 12:04pm

Thu Aug 6, 11:04am

Thu Aug 6, 10:04am

Thu Aug 6, 9:04am

Thu Aug 6, 8:04am

Thu Aug 6, 7:04am

Thu Aug 6, 6:04am

Thu Aug 6, 5:04am

Thu Aug 6, 4:04am

Thu Aug 6, 3:04am

Thu Aug 6, 2:05am

Thu Aug 6, 1:04am

Thu Aug 6, 12:04am

Wed Aug 5, 11:04pm

Wed Aug 5, 10:04pm

Wed Aug 5, 9:04pm

Wed Aug 5, 8:05pm

Wed Aug 5, 7:04pm

Wed Aug 5, 6:04pm

Wed Aug 5, 5:04pm

Wed Aug 5, 4:05pm

Wed Aug 5, 3:04pm

Wed Aug 5, 2:04pm

Wed Aug 5, 1:04pm

Wed Aug 5, 12:04pm

Wed Aug 5, 11:04am

Wed Aug 5, 10:04am

Wed Aug 5, 9:04am

Wed Aug 5, 8:04am

Wed Aug 5, 7:04am

Wed Aug 5, 6:04am

Wed Aug 5, 5:04am

Wed Aug 5, 4:04am

Wed Aug 5, 3:04am

Wed Aug 5, 2:05am

Wed Aug 5, 1:04am

Wed Aug 5, 12:05am

Tue Aug 4, 11:05pm

Tue Aug 4, 10:05pm

Tue Aug 4, 9:04pm

Tue Aug 4, 8:04pm

Tue Aug 4, 7:05pm

Tue Aug 4, 6:05pm

Tue Aug 4, 5:05pm

Tue Aug 4, 4:05pm

Tue Aug 4, 3:04pm

Tue Aug 4, 2:05pm

Tue Aug 4, 1:04pm

Tue Aug 4, 12:05pm

Tue Aug 4, 11:04am

Tue Aug 4, 10:04am

Tue Aug 4, 9:04am

Tue Aug 4, 8:04am

Tue Aug 4, 7:04am

Tue Aug 4, 6:04am

Tue Aug 4, 5:04am

Tue Aug 4, 4:04am

Tue Aug 4, 3:04am

Tue Aug 4, 2:04am

Tue Aug 4, 1:04am

Tue Aug 4, 12:04am

Mon Aug 3, 11:04pm

Mon Aug 3, 10:04pm

Mon Aug 3, 9:04pm

Mon Aug 3, 8:05pm

Mon Aug 3, 7:04pm

Mon Aug 3, 6:04pm

Mon Aug 3, 5:04pm

Mon Aug 3, 4:05pm

Mon Aug 3, 3:04pm

Mon Aug 3, 2:04pm

Mon Aug 3, 1:04pm

Mon Aug 3, 12:05pm

Mon Aug 3, 11:04am

Mon Aug 3, 10:04am

Mon Aug 3, 9:05am

Mon Aug 3, 8:04am

Mon Aug 3, 7:04am

Mon Aug 3, 6:04am

Mon Aug 3, 5:04am

Mon Aug 3, 4:04am

Mon Aug 3, 3:04am

Mon Aug 3, 2:04am

Mon Aug 3, 1:04am

Mon Aug 3, 12:05am

Sun Aug 2, 11:04pm

Sun Aug 2, 10:04pm

Sun Aug 2, 9:04pm

Sun Aug 2, 8:04pm

Sun Aug 2, 7:04pm

Sun Aug 2, 6:04pm

Sun Aug 2, 5:04pm

Sun Aug 2, 4:05pm

Sun Aug 2, 3:04pm

Sun Aug 2, 2:05pm

Sun Aug 2, 1:04pm

Sun Aug 2, 12:04pm

Sun Aug 2, 11:04am

Sun Aug 2, 10:04am

Sun Aug 2, 9:05am

Sun Aug 2, 7:04am

Sun Aug 2, 6:04am

Sun Aug 2, 5:04am

Sun Aug 2, 4:05am

Sun Aug 2, 3:04am

Sun Aug 2, 2:04am

Sun Aug 2, 1:04am

Sun Aug 2, 12:05am

Sat Aug 1, 11:04pm

Sat Aug 1, 10:04pm

Sat Aug 1, 9:04pm

Sat Aug 1, 8:05pm

Sat Aug 1, 7:04pm

Sat Aug 1, 6:04pm

Sat Aug 1, 5:05pm

Sat Aug 1, 4:05pm

Sat Aug 1, 3:04pm

Sat Aug 1, 2:04pm

Sat Aug 1, 1:04pm

Sat Aug 1, 12:04pm

Sat Aug 1, 11:05am

Sat Aug 1, 10:05am

Sat Aug 1, 9:04am

Sat Aug 1, 8:04am

Sat Aug 1, 7:04am

Sat Aug 1, 6:04am

Sat Aug 1, 5:04am

Sat Aug 1, 4:05am

Sat Aug 1, 3:04am

Sat Aug 1, 2:04am

Sat Aug 1, 1:04am

Sat Aug 1, 12:05am

Fri Jul 31, 11:05pm

Fri Jul 31, 10:04pm

Fri Jul 31, 9:04pm

Fri Jul 31, 8:05pm

Fri Jul 31, 7:05pm

Fri Jul 31, 6:04pm

Fri Jul 31, 5:04pm

Fri Jul 31, 4:05pm

Fri Jul 31, 3:04pm

Fri Jul 31, 2:05pm

Fri Jul 31, 1:04pm

Fri Jul 31, 12:04pm

Meta data:

ID: 994276e8-28fb-49df-ab30-d4afb90a2ded
Link: https://api.weather.gov/products/994276e8-28fb-49df-ab30-d4afb90a2ded